Location: Alafon
(8.4500°N, 4.2333°E)
Time: 18:04:54
(UTC+00:00)

deb Explorer IX - Pass Details

Date: 25 July 2021
Orbit: 545 x 1091 km, 38.8° (Epoch: 20 September)

Event Time Altitude Azimuth Distance (km) Brightness Sun altitude
Rises 00:11:03 0° 293° (WNW) 3,837 - -61.4°
Reaches altitude 10° 00:14:12 10° 284° (WNW) 2,833 - -61.3°
Maximum altitude 00:20:07 31° 224° (SW) 1,626 - -60.9°
Drops below altitude 10° 00:25:29 10° 164° (SSE) 2,540 - -60.6°
Sets 00:28:10 0° 153° (SSE) 3,386 - -60.3°
